SHIJIAN-20 (SJ-20)

Last updated on Oct. 24, 2020, 5:55 a.m. UTC

1 44910U 19097A   20297.86577212 -.00000370  00000-0  00000-0 0  9993
2 44910   0.5049  94.8670 0026811 153.2488 220.9056  1.00272594  3020
UTC
Height (km)
Latitude
Longitude
Inclination
Orbital Period
UTC large
Height (km)
Speed (km/s)
/
Latitude / Longitude
Inclination (degrees)
Orbital Period (minutes)
Azimuth
Elevation
Range (km)
Doppler Factor
iOS Compass Heading
iOS Angle

Next 30 passes for location: Hong Kong

Rise time Rise Azimuth (degrees) Set time Set Azimuth (degrees) Duration Max altitude (degrees)

No matching passes for this satellites